EN

Hourly Weather Dzitbalche

Today, 22 October, Thursday

Time Temperature Precipitation Wind Pressure Humidity
00:00 +23°C° 0 mm 0 mps 754 mmHg 98%
01:00 +23°C° 0 mm 0 mps 754 mmHg 98%
02:00 +23°C° 0 mm 0 mps 754 mmHg 98%
03:00 +23°C° 0 mm 0 mps 753 mmHg 98%
04:00 +23°C° 0 mm 0 mps 754 mmHg 98%
05:00 +22°C° 0 mm 0 mps 754 mmHg 98%
06:00 +22°C° 0 mm 0 mps 754 mmHg 98%
07:00 +25°C° 0 mm 0 mps 754 mmHg 90%
08:00 +27°C° 0 mm 0 mps 755 mmHg 82%
09:00 +29°C° 0 mm 0 mps 755 mmHg 74%
10:00 +30°C° 0 mm 0 mps 755 mmHg 68%
11:00 +34°C° 0 mm 1 mps 754 mmHg 61%
12:00 +35°C° 0 mm 1 mps 754 mmHg 54%
13:00 +34°C° 0.3 mm 1 mps 753 mmHg 60%
14:00 +34°C° 0.3 mm 2 mps 753 mmHg 66%
15:00 +32°C° 0.3 mm 2 mps 752 mmHg 72%
16:00 +30°C° 0.7 mm 2 mps 753 mmHg 79%
17:00 +29°C° 0.7 mm 1 mps 753 mmHg 85%
18:00 +27°C° 0.7 mm 1 mps 753 mmHg 91%
19:00 +27°C° 0.1 mm 1 mps 754 mmHg 93%
20:00 +26°C° 0.1 mm 1 mps 755 mmHg 95%
21:00 +26°C° 0.1 mm 1 mps 755 mmHg 96%
22:00 +24°C° 0 mm 0 mps 755 mmHg 97%
23:00 +24°C° 0 mm 0 mps 755 mmHg 97%

Tomorrow, 23 October, Friday

Time Temperature Precipitation Wind Pressure Humidity
00:00 +23°C° 0 mm 0 mps 754 mmHg 98%
01:00 +23°C° 0 mm 0 mps 754 mmHg 98%
02:00 +23°C° 0 mm 0 mps 754 mmHg 98%
03:00 +23°C° 0 mm 0 mps 754 mmHg 98%
04:00 +23°C° 0 mm 0 mps 754 mmHg 98%
05:00 +23°C° 0 mm 0 mps 754 mmHg 98%
06:00 +23°C° 0 mm 0 mps 754 mmHg 98%
07:00 +25°C° 0 mm 0 mps 755 mmHg 90%
08:00 +27°C° 0 mm 0 mps 755 mmHg 83%
09:00 +29°C° 0 mm 0 mps 756 mmHg 75%
10:00 +30°C° 0.5 mm 0 mps 755 mmHg 73%
11:00 +32°C° 0.5 mm 1 mps 755 mmHg 72%
12:00 +33°C° 0.5 mm 1 mps 755 mmHg 70%
13:00 +32°C° 2.2 mm 1 mps 754 mmHg 75%
14:00 +32°C° 2.2 mm 1 mps 754 mmHg 79%
15:00 +31°C° 2.2 mm 2 mps 753 mmHg 83%
16:00 +30°C° 1.2 mm 1 mps 753 mmHg 87%
17:00 +28°C° 1.2 mm 1 mps 754 mmHg 90%
18:00 +27°C° 1.2 mm 1 mps 754 mmHg 94%
19:00 +27°C° 0.1 mm 1 mps 754 mmHg 95%
20:00 +26°C° 0.1 mm 1 mps 755 mmHg 96%
21:00 +26°C° 0.1 mm 1 mps 756 mmHg 98%
22:00 +26°C° 0.4 mm 1 mps 755 mmHg 98%
23:00 +26°C° 0.4 mm 1 mps 755 mmHg 98%

Day after tomorrow, 24 October, Saturday

Time Temperature Precipitation Wind Pressure Humidity
00:00 +26°C° 0.4 mm 1 mps 755 mmHg 98%
01:00 +25°C° 0 mm 1 mps 755 mmHg 98%
02:00 +23°C° 0 mm 0 mps 755 mmHg 98%
03:00 +23°C° 0 mm 0 mps 755 mmHg 98%
04:00 +23°C° 0 mm 0 mps 755 mmHg 98%
05:00 +23°C° 0 mm 0 mps 755 mmHg 98%
06:00 +23°C° 0 mm 0 mps 755 mmHg 98%
07:00 +25°C° 0 mm 0 mps 755 mmHg 91%
08:00 +27°C° 0 mm 0 mps 756 mmHg 84%
09:00 +29°C° 0 mm 0 mps 756 mmHg 78%
10:00 +32°C° 0 mm 1 mps 756 mmHg 69%
11:00 +33°C° 0 mm 1 mps 755 mmHg 61%
12:00 +35°C° 0 mm 1 mps 755 mmHg 52%
13:00 +34°C° 0.8 mm 2 mps 754 mmHg 62%
14:00 +32°C° 0.8 mm 2 mps 754 mmHg 71%
15:00 +30°C° 0.8 mm 3 mps 753 mmHg 81%
16:00 +29°C° 0.4 mm 2 mps 753 mmHg 85%
17:00 +28°C° 0.4 mm 2 mps 754 mmHg 89%
18:00 +27°C° 0.4 mm 1 mps 754 mmHg 94%
19:00 +27°C° 0.1 mm 1 mps 754 mmHg 95%
20:00 +26°C° 0.1 mm 1 mps 755 mmHg 96%
21:00 +26°C° 0.1 mm 1 mps 755 mmHg 98%
22:00 +26°C° 0.2 mm 1 mps 755 mmHg 98%
23:00 +26°C° 0.2 mm 1 mps 755 mmHg 98%

, 25 October, Sunday

Time Temperature Precipitation Wind Pressure Humidity
00:00 +25°C° 0.2 mm 1 mps 755 mmHg 98%
01:00 +25°C° 0 mm 1 mps 755 mmHg 98%
02:00 +25°C° 0 mm 1 mps 755 mmHg 98%
03:00 +25°C° 0 mm 1 mps 754 mmHg 98%
04:00 +23°C° 0 mm 0 mps 755 mmHg 98%
05:00 +23°C° 0 mm 0 mps 755 mmHg 99%
06:00 +23°C° 0 mm 0 mps 755 mmHg 99%
07:00 +27°C° 0 mm 1 mps 755 mmHg 91%
08:00 +29°C° 0 mm 1 mps 756 mmHg 84%
09:00 +30°C° 0 mm 1 mps 756 mmHg 77%
10:00 +32°C° 0 mm 1 mps 756 mmHg 70%
11:00 +33°C° 0 mm 1 mps 755 mmHg 63%
12:00 +34°C° 0 mm 1 mps 755 mmHg 57%
13:00 +33°C° 0.9 mm 1 mps 754 mmHg 65%
14:00 +32°C° 0.9 mm 2 mps 754 mmHg 74%
15:00 +31°C° 0.9 mm 2 mps 753 mmHg 82%
16:00 +29°C° 0.6 mm 2 mps 753 mmHg 86%
17:00 +28°C° 0.6 mm 1 mps 754 mmHg 91%
18:00 +27°C° 0.6 mm 1 mps 754 mmHg 95%
19:00 +27°C° 0.1 mm 1 mps 755 mmHg 96%
20:00 +26°C° 0.1 mm 1 mps 755 mmHg 96%
21:00 +26°C° 0.1 mm 1 mps 755 mmHg 97%
22:00 +26°C° 0 mm 1 mps 755 mmHg 98%
23:00 +26°C° 0 mm 1 mps 755 mmHg 98%

25 October, Sunday

Time Temperature Precipitation Wind Pressure Humidity
00:00 +25°C° 0.2 mm 1 mps 755 mmHg 98%
01:00 +25°C° 0 mm 1 mps 755 mmHg 98%
02:00 +25°C° 0 mm 1 mps 755 mmHg 98%
03:00 +25°C° 0 mm 1 mps 754 mmHg 98%
04:00 +23°C° 0 mm 0 mps 755 mmHg 98%
05:00 +23°C° 0 mm 0 mps 755 mmHg 99%
06:00 +23°C° 0 mm 0 mps 755 mmHg 99%
07:00 +27°C° 0 mm 1 mps 755 mmHg 91%
08:00 +29°C° 0 mm 1 mps 756 mmHg 84%
09:00 +30°C° 0 mm 1 mps 756 mmHg 77%
10:00 +32°C° 0 mm 1 mps 756 mmHg 70%
11:00 +33°C° 0 mm 1 mps 755 mmHg 63%
12:00 +34°C° 0 mm 1 mps 755 mmHg 57%
13:00 +33°C° 0.9 mm 1 mps 754 mmHg 65%
14:00 +32°C° 0.9 mm 2 mps 754 mmHg 74%
15:00 +31°C° 0.9 mm 2 mps 753 mmHg 82%
16:00 +29°C° 0.6 mm 2 mps 753 mmHg 86%
17:00 +28°C° 0.6 mm 1 mps 754 mmHg 91%
18:00 +27°C° 0.6 mm 1 mps 754 mmHg 95%
19:00 +27°C° 0.1 mm 1 mps 755 mmHg 96%
20:00 +26°C° 0.1 mm 1 mps 755 mmHg 96%
21:00 +26°C° 0.1 mm 1 mps 755 mmHg 97%
22:00 +26°C° 0 mm 1 mps 755 mmHg 98%
23:00 +26°C° 0 mm 1 mps 755 mmHg 98%

26 October, Monday

Time Temperature Precipitation Wind Pressure Humidity
00:00 +26°C° 0 mm 1 mps 755 mmHg 99%
01:00 +25°C° 0 mm 1 mps 755 mmHg 99%
02:00 +25°C° 0 mm 1 mps 754 mmHg 99%
03:00 +25°C° 0 mm 1 mps 754 mmHg 99%
04:00 +25°C° 0 mm 1 mps 755 mmHg 99%
05:00 +25°C° 0 mm 1 mps 755 mmHg 99%
06:00 +25°C° 0 mm 1 mps 755 mmHg 99%
07:00 +27°C° 0 mm 1 mps 756 mmHg 91%
08:00 +28°C° 0 mm 1 mps 756 mmHg 84%
09:00 +30°C° 0 mm 1 mps 756 mmHg 76%
10:00 +32°C° 0 mm 1 mps 756 mmHg 69%
11:00 +34°C° 0 mm 2 mps 756 mmHg 61%
12:00 +36°C° 0 mm 2 mps 755 mmHg 54%
13:00 +34°C° 0.4 mm 1 mps 754 mmHg 57%
14:00 +34°C° 0.4 mm 1 mps 754 mmHg 61%
15:00 +34°C° 0.4 mm 1 mps 753 mmHg 65%
16:00 +32°C° 0.3 mm 1 mps 753 mmHg 72%
17:00 +30°C° 0.3 mm 1 mps 754 mmHg 79%
18:00 +28°C° 0.3 mm 1 mps 754 mmHg 86%
19:00 +28°C° 0 mm 1 mps 754 mmHg 87%
20:00 +27°C° 0 mm 1 mps 755 mmHg 89%
21:00 +27°C° 0 mm 1 mps 755 mmHg 91%
22:00 +26°C° 0 mm 1 mps 755 mmHg 91%
23:00 +26°C° 0 mm 1 mps 755 mmHg 91%

27 October, Tuesday

Time Temperature Precipitation Wind Pressure Humidity
00:00 +26°C° 0 mm 1 mps 755 mmHg 91%
01:00 +26°C° 0 mm 1 mps 755 mmHg 92%
02:00 +26°C° 0 mm 1 mps 755 mmHg 93%
03:00 +25°C° 0 mm 1 mps 755 mmHg 94%
04:00 +25°C° 0 mm 1 mps 755 mmHg 95%
05:00 +25°C° 0 mm 1 mps 755 mmHg 96%
06:00 +25°C° 0 mm 1 mps 755 mmHg 97%
07:00 +27°C° 0 mm 2 mps 756 mmHg 90%
08:00 +28°C° 0 mm 2 mps 756 mmHg 84%
09:00 +30°C° 0 mm 2 mps 756 mmHg 77%
10:00 +33°C° 0 mm 3 mps 756 mmHg 68%
11:00 +35°C° 0 mm 3 mps 756 mmHg 60%
12:00 +36°C° 0 mm 3 mps 755 mmHg 52%
13:00 +36°C° 0.6 mm 3 mps 755 mmHg 56%
14:00 +35°C° 0.6 mm 3 mps 754 mmHg 60%
15:00 +34°C° 0.6 mm 3 mps 753 mmHg 64%
16:00 +32°C° 0 mm 2 mps 754 mmHg 69%
17:00 +30°C° 0 mm 2 mps 754 mmHg 74%
18:00 +29°C° 0 mm 1 mps 754 mmHg 78%
19:00 +28°C° 0 mm 2 mps 754 mmHg 79%
20:00 +28°C° 0 mm 2 mps 755 mmHg 80%
21:00 +28°C° 0 mm 2 mps 755 mmHg 81%
22:00 +27°C° 0 mm 2 mps 755 mmHg 83%
23:00 +27°C° 0 mm 1 mps 755 mmHg 86%
Show more